Date String (YYYY-MM-DD hh:mm:ss) UTC,Instrument flags,Ambient pressure (hPa),Sample flow (lpm),Bypass flow (lpm),Sample temperature (°C),Ambient temperature (°C),ASC tube jacket temperature (°C),LED temperature (°C),Box temperature (°C),Sample RH (%),Span deviation,Mass concentration (μg/m³),Mass concentration (μg/m³),Mass concentration (μg/m³)
DateTimeUTC,F1_M11,P_M11,Q1_M11,Q2_M11,T1_M11,T2_M11,T3_M11,T4_M11,T5_M11,U1_M11,ZSPAN_M11,X0_M11,X2_M11,X1_M11
2022-07-06 16:00:00,,0829.2,5.01,0.00,32.5,28.7,00.0,40.9,32.9,34.1,-000.1,0011.84,0005.87,0004.94
2022-07-06 16:01:00,,0829.2,5.01,0.00,32.4,28.8,00.0,40.9,32.9,34.6,0000.2,0011.96,0005.93,0005.00
2022-07-06 16:02:00,,0829.2,5.00,0.00,32.4,28.9,00.0,40.8,32.9,34.8,0000.2,0012.04,0005.98,0005.04
2022-07-06 16:03:00,,0829.2,5.00,0.00,32.3,29.0,00.0,40.8,32.9,34.5,0000.3,0012.08,0006.01,0005.07
2022-07-06 16:04:00,,0829.3,5.00,0.00,32.3,29.1,00.0,40.8,32.9,34.3,0000.3,0012.14,0006.05,0005.09
2022-07-06 16:05:00,,0829.2,5.00,0.00,32.3,29.2,00.0,40.8,32.9,34.4,0000.1,0012.25,0006.13,0005.13
2022-07-06 16:06:00,,0829.2,5.00,0.00,32.2,29.3,00.0,40.7,33.0,33.9,-000.2,0012.18,0006.14,0005.16
2022-07-06 16:07:00,,0829.3,4.99,0.00,32.2,29.3,00.0,40.7,33.0,35.1,-000.3,0011.97,0006.12,0005.19
2022-07-06 16:08:00,,0829.2,5.01,0.00,32.3,29.4,00.0,40.7,33.1,35.3,-000.9,0011.61,0006.17,0005.24
2022-07-06 16:09:00,,0829.2,4.99,0.00,32.6,29.0,00.0,40.6,33.2,35.3,-000.9,0011.39,0006.19,0005.27
2022-07-06 16:10:00,,0829.3,5.01,0.00,33.0,28.4,00.0,40.6,33.3,35.2,-000.7,0010.97,0006.15,0005.27
2022-07-06 16:11:00,,0829.2,4.99,0.00,33.3,28.1,00.0,40.5,33.3,34.2,-000.9,0010.79,0006.11,0005.26
2022-07-06 16:12:00,,0829.2,5.01,0.00,33.3,28.0,00.0,40.6,33.1,34.2,-000.9,0011.47,0006.11,0005.26
2022-07-06 16:13:00,,0829.1,4.99,0.00,33.2,28.1,00.0,40.6,33.0,34.1,-001.0,0012.41,0006.15,0005.28
2022-07-06 16:14:00,,0829.1,5.00,0.00,33.2,28.3,00.0,40.7,32.9,34.4,-001.1,0012.49,0006.15,0005.29
2022-07-06 16:15:00,,0829.1,5.01,0.00,33.1,28.4,00.0,40.7,32.9,34.4,-001.3,0013.45,0006.11,0005.31
2022-07-06 16:16:00,,0829.0,4.99,0.00,33.0,28.6,00.0,40.8,32.9,34.5,-001.5,0014.35,0006.12,0005.31
2022-07-06 16:17:00,,0829.1,5.00,0.00,33.0,28.7,00.0,40.8,32.9,34.6,-001.2,0014.34,0006.14,0005.32
2022-07-06 16:18:00,,0829.0,4.98,0.00,32.9,28.8,00.0,40.8,32.9,34.8,-001.0,0014.47,0006.19,0005.31
2022-07-06 16:19:00,,0829.1,5.01,0.00,32.9,29.0,00.0,40.9,33.0,34.7,-000.7,0014.60,0006.17,0005.29
2022-07-06 16:20:00,,0829.1,5.00,0.00,32.9,29.1,00.0,40.9,33.0,34.4,-000.5,0015.13,0006.16,0005.28
2022-07-06 16:21:00,,0829.1,5.00,0.00,32.9,29.1,00.0,40.9,33.0,34.1,-000.6,0015.54,0006.23,0005.31
2022-07-06 16:22:00,,0829.0,5.00,0.00,32.9,29.2,00.0,40.9,33.0,33.9,-000.6,0015.69,0006.25,0005.34
2022-07-06 16:23:00,,0829.0,5.00,0.00,32.8,29.3,00.0,40.9,33.1,34.2,-000.8,0015.08,0006.29,0005.39
2022-07-06 16:24:00,,0829.1,5.00,0.00,32.8,29.2,00.0,40.9,33.1,34.0,-000.8,0014.24,0006.29,0005.41
2022-07-06 16:25:00,,0829.1,5.00,0.00,32.8,28.5,00.0,40.8,33.0,33.8,-000.7,0014.61,0006.32,0005.42
2022-07-06 16:26:00,,0829.1,5.00,0.00,32.7,28.1,00.0,40.8,32.9,33.7,-000.9,0014.45,0006.39,0005.44
2022-07-06 16:27:00,,0829.0,5.00,0.00,32.6,27.9,00.0,40.8,32.8,33.8,-000.6,0013.20,0006.38,0005.43
2022-07-06 16:28:00,,0829.1,5.00,0.00,32.4,28.0,00.0,40.7,32.7,34.3,-000.5,0013.18,0006.33,0005.40
2022-07-06 16:29:00,,0829.1,5.00,0.00,32.3,28.1,00.0,40.7,32.6,34.8,-000.6,0013.39,0006.25,0005.38
2022-07-06 16:30:00,,0829.1,5.00,0.00,32.3,28.3,00.0,40.7,32.7,34.3,-000.3,0013.27,0006.20,0005.35
2022-07-06 16:31:00,,0829.0,5.00,0.00,32.2,28.4,00.0,40.6,32.7,35.1,-000.5,0013.13,0006.17,0005.31
2022-07-06 16:32:00,,0829.1,5.00,0.00,32.3,28.6,00.0,40.6,32.8,34.4,-000.6,0012.65,0006.10,0005.28
2022-07-06 16:33:00,,0829.1,5.00,0.00,32.4,28.7,00.0,40.6,32.9,34.4,-000.5,0012.40,0006.06,0005.24
2022-07-06 16:34:00,,0829.1,5.00,0.00,32.4,28.8,00.0,40.6,32.8,34.3,-000.6,0012.32,0005.96,0005.17
2022-07-06 16:35:00,,0829.1,5.01,0.00,32.4,29.0,00.0,40.6,32.8,34.0,-000.7,0012.41,0005.90,0005.13
2022-07-06 16:36:00,,0829.1,5.00,0.00,32.4,29.1,00.0,40.6,32.9,33.7,-001.2,0012.43,0005.80,0005.06
2022-07-06 16:37:00,,0829.1,5.00,0.00,32.3,29.2,00.0,40.6,32.9,33.7,-000.7,0012.22,0005.67,0004.97
2022-07-06 16:38:00,,0829.0,4.99,0.00,32.3,29.0,00.0,40.5,32.9,34.9,-001.0,0012.54,0005.59,0004.91
2022-07-06 16:39:00,,0829.0,5.01,0.00,32.4,28.4,00.0,40.5,32.9,35.3,-001.2,0012.66,0005.55,0004.87
2022-07-06 16:40:00,,0829.1,5.01,0.00,32.6,28.0,00.0,40.4,33.0,34.4,-001.3,0012.42,0005.54,0004.83
2022-07-06 16:41:00,,0829.1,4.99,0.00,32.6,27.9,00.0,40.4,32.9,34.6,-001.2,0012.22,0005.54,0004.81
2022-07-06 16:42:00,,0829.0,5.01,0.00,32.5,28.0,00.0,40.4,32.7,34.6,-001.0,0011.86,0005.50,0004.79
2022-07-06 16:43:00,,0829.1,5.02,0.00,32.5,28.1,00.0,40.4,32.7,34.4,-000.9,0011.20,0005.47,0004.77
2022-07-06 16:44:00,,0829.1,5.00,0.00,32.4,28.3,00.0,40.4,32.6,33.8,-000.5,0011.14,0005.43,0004.74
2022-07-06 16:45:00,,0829.1,4.99,0.00,32.4,28.4,00.0,40.5,32.7,34.2,-000.3,0010.98,0005.43,0004.71
2022-07-06 16:46:00,,0829.1,5.00,0.00,32.3,28.6,00.0,40.5,32.7,34.2,-000.5,0010.90,0005.49,0004.69
2022-07-06 16:47:00,,0829.0,5.00,0.00,32.2,28.7,00.0,40.5,32.7,34.1,-000.0,0011.25,0005.55,0004.70
2022-07-06 16:48:00,,0829.1,5.01,0.00,32.2,28.9,00.0,40.5,32.7,34.1,-000.1,0010.53,0005.62,0004.73
2022-07-06 16:49:00,,0829.1,5.01,0.00,32.2,29.0,00.0,40.5,32.7,34.3,-000.1,0010.73,0005.70,0004.76
2022-07-06 16:50:00,,0829.1,5.00,0.00,32.1,29.1,00.0,40.5,32.7,34.5,-000.0,0011.03,0005.70,0004.77
2022-07-06 16:51:00,,0829.1,5.00,0.00,32.1,28.8,00.0,40.4,32.8,34.5,0000.2,0011.16,0005.76,0004.80
2022-07-06 16:52:00,,0829.1,4.99,0.00,32.0,28.2,00.0,40.3,32.7,34.6,0000.4,0011.13,0005.79,0004.83
2022-07-06 16:53:00,,0829.1,5.01,0.00,32.0,27.8,00.0,40.3,32.6,34.8,0000.2,0011.47,0005.88,0004.88
2022-07-06 16:54:00,,0829.0,4.99,0.00,31.9,27.8,00.0,40.3,32.5,35.7,-000.2,0011.99,0005.90,0004.90
2022-07-06 16:55:00,,0829.0,5.01,0.00,31.9,27.9,00.0,40.2,32.5,35.3,-000.6,0012.02,0005.90,0004.92
2022-07-06 16:56:00,,0828.9,4.99,0.00,32.2,28.0,00.0,40.2,32.7,35.1,-000.1,0012.94,0005.93,0004.93
2022-07-06 16:57:00,,0829.0,5.01,0.00,32.5,28.2,00.0,40.2,32.8,34.7,0000.5,0013.13,0005.84,0004.91
2022-07-06 16:58:00,,0829.0,5.00,0.00,32.7,28.3,00.0,40.2,32.8,34.0,0000.2,0012.61,0005.76,0004.90
2022-07-06 16:59:00,,0829.0,5.00,0.00,32.8,28.5,00.0,40.2,32.8,34.1,0000.2,0012.84,0005.74,0004.88
